| time (UTC) | temp F | wind direction | speed MPH | gust MPH | rain 1hr in | rain 24hr in | rain mn in | humidity % | barometer mb |
| 20260502042049 | 71 | 0 | 0.0 | 3.0 | 0.00 | 0.00 | 0.00 | 70 | 1010.1 |
| 20260502041149 | 71 | 0 | 0.0 | 2.0 | 0.00 | 0.00 | 0.00 | 69 | 1010.0 |
| 20260502040249 | 72 | 131 | 0.0 | 3.0 | 0.00 | 0.00 | 0.00 | 69 | 1009.7 |
| 20260502035349 | 72 | 134 | 1.0 | 3.0 | 0.00 | 0.00 | 0.00 | 67 | 1009.5 |
| 20260502033550 | 74 | 212 | 1.0 | 3.0 | 0.00 | 0.00 | 0.00 | 64 | 1009.4 |
| 20260502032649 | 74 | 208 | 0.0 | 3.0 | 0.00 | 0.00 | 0.00 | 62 | 1009.1 |
| 20260502031749 | 75 | 131 | 0.0 | 2.0 | 0.00 | 0.00 | 0.00 | 59 | 1009.1 |
| 20260502025949 | 76 | 166 | 0.0 | 2.0 | 0.00 | 0.00 | 0.00 | 57 | 1009.2 |
| 20260502025049 | 77 | 214 | 1.0 | 4.0 | 0.00 | 0.00 | 0.00 | 57 | 1009.0 |
| 20260502024149 | 78 | 0 | 0.0 | 4.0 | 0.00 | 0.00 | 0.00 | 56 | 1009.0 |
| 20260502022349 | 79 | 108 | 1.0 | 3.0 | 0.00 | 0.00 | 0.00 | 57 | 1008.9 |
| 20260502021449 | 80 | 0 | 0.0 | 3.0 | 0.00 | 0.00 | 0.00 | 55 | 1008.8 |
| 20260502015650 | 81 | 123 | 0.0 | 3.0 | 0.00 | 0.00 | 0.00 | 54 | 1008.8 |
| 20260502013850 | 82 | 0 | 0.0 | 2.0 | 0.00 | 0.00 | 0.00 | 52 | 1008.8 |
| 20260502012049 | 82 | 102 | 1.0 | 3.0 | 0.00 | 0.00 | 0.00 | 51 | 1009.0 |
| 20260502011150 | 82 | 109 | 1.0 | 4.0 | 0.00 | 0.00 | 0.00 | 51 | 1008.9 |
| 20260502010250 | 83 | 114 | 1.0 | 4.0 | 0.00 | 0.00 | 0.00 | 49 | 1009.1 |
| 20260502005349 | 84 | 185 | 1.0 | 4.0 | 0.00 | 0.00 | 0.00 | 50 | 1009.3 |
| 20260502003549 | 84 | 113 | 1.0 | 5.0 | 0.00 | 0.00 | 0.00 | 50 | 1009.5 |
| 20260502002649 | 84 | 151 | 1.0 | 5.0 | 0.00 | 0.00 | 0.00 | 50 | 1009.5 |
| 20260502000850 | 85 | 113 | 1.0 | 3.0 | 0.00 | 0.00 | 0.00 | 49 | 1009.6 |
| 20260501235950 | 85 | 88 | 1.0 | 4.0 | 0.00 | 0.00 | 0.00 | 48 | 1009.6 |
| 20260501235049 | 85 | 119 | 1.0 | 3.0 | 0.00 | 0.00 | 0.00 | 48 | 1009.6 |
| 20260501233249 | 86 | 28 | 1.0 | 2.0 | 0.00 | 0.00 | 0.00 | 47 | 1009.6 |
| 20260501232349 | 85 | 105 | 1.0 | 3.0 | 0.00 | 0.00 | 0.00 | 47 | 1009.8 |
| 20260501231449 | 86 | 123 | 1.0 | 4.0 | 0.00 | 0.00 | 0.00 | 45 | 1010.0 |
| 20260501230550 | 86 | 188 | 1.0 | 3.0 | 0.00 | 0.00 | 0.00 | 46 | 1010.0 |
| 20260501225649 | 86 | 280 | 1.0 | 3.0 | 0.00 | 0.00 | 0.00 | 48 | 1010.1 |
| 20260501224749 | 86 | 234 | 1.0 | 3.0 | 0.00 | 0.00 | 0.00 | 47 | 1010.2 |
| 20260501223849 | 86 | 213 | 1.0 | 5.0 | 0.00 | 0.00 | 0.00 | 47 | 1010.5 |
| 20260501222949 | 85 | 202 | 1.0 | 5.0 | 0.00 | 0.00 | 0.00 | 48 | 1010.6 |
| 20260501222049 | 85 | 125 | 1.0 | 4.0 | 0.00 | 0.00 | 0.00 | 48 | 1010.7 |
| 20260501221150 | 85 | 191 | 1.0 | 5.0 | 0.00 | 0.00 | 0.00 | 47 | 1010.7 |
| 20260501220250 | 86 | 242 | 1.0 | 4.0 | 0.00 | 0.00 | 0.00 | 48 | 1010.8 |
| 20260501215349 | 85 | 219 | 2.0 | 3.0 | 0.00 | 0.00 | 0.00 | 48 | 1011.1 |
| 20260501214449 | 84 | 159 | 2.0 | 6.0 | 0.00 | 0.00 | 0.00 | 48 | 1011.2 |
| 20260501213549 | 83 | 102 | 1.0 | 5.0 | 0.00 | 0.00 | 0.00 | 50 | 1011.2 |
| 20260501212649 | 84 | 97 | 1.0 | 4.0 | 0.00 | 0.00 | 0.00 | 49 | 1011.3 |
| 20260501211749 | 84 | 218 | 1.0 | 4.0 | 0.00 | 0.00 | 0.00 | 51 | 1011.4 |
| 20260501210849 | 84 | 228 | 1.0 | 3.0 | 0.00 | 0.00 | 0.00 | 51 | 1011.4 |
| 20260501205949 | 84 | 187 | 2.0 | 2.0 | 0.00 | 0.00 | 0.00 | 51 | 1011.6 |
| 20260501205050 | 83 | 218 | 1.0 | 5.0 | 0.00 | 0.00 | 0.00 | 53 | 1011.7 |
| 20260501204149 | 83 | 207 | 1.0 | 3.0 | 0.00 | 0.00 | 0.00 | 52 | 1011.9 |
| 20260501203249 | 83 | 212 | 1.0 | 4.0 | 0.00 | 0.00 | 0.00 | 53 | 1012.1 |
| 20260501202349 | 82 | 176 | 2.0 | 5.0 | 0.00 | 0.00 | 0.00 | 54 | 1012.1 |
| 20260501201450 | 80 | 126 | 2.0 | 5.0 | 0.00 | 0.00 | 0.00 | 54 | 1012.2 |
| 20260501195650 | 80 | 207 | 2.0 | 6.0 | 0.00 | 0.00 | 0.00 | 56 | 1012.4 |
| 20260501194749 | 80 | 208 | 1.0 | 4.0 | 0.00 | 0.00 | 0.00 | 55 | 1012.4 |
| 20260501193849 | 79 | 110 | 1.0 | 4.0 | 0.00 | 0.00 | 0.00 | 56 | 1012.5 |
| 20260501192950 | 80 | 131 | 1.0 | 4.0 | 0.00 | 0.00 | 0.00 | 55 | 1012.5 |
| 20260501192050 | 79 | 128 | 1.0 | 4.0 | 0.00 | 0.00 | 0.00 | 56 | 1012.7 |
| 20260501191149 | 78 | 186 | 2.0 | 5.0 | 0.00 | 0.00 | 0.00 | 59 | 1012.8 |
| 20260501190249 | 77 | 219 | 2.0 | 6.0 | 0.00 | 0.00 | 0.00 | 58 | 1012.9 |
| 20260501185350 | 77 | 207 | 1.0 | 3.0 | 0.00 | 0.00 | 0.00 | 59 | 1013.0 |
| 20260501184450 | 76 | 210 | 2.0 | 4.0 | 0.00 | 0.00 | 0.00 | 60 | 1013.1 |
| 20260501183550 | 76 | 225 | 2.0 | 6.0 | 0.00 | 0.00 | 0.00 | 59 | 1013.3 |
| 20260501182650 | 76 | 154 | 1.0 | 4.0 | 0.00 | 0.00 | 0.00 | 60 | 1013.3 |
| 20260501181749 | 75 | 147 | 1.0 | 4.0 | 0.00 | 0.00 | 0.00 | 60 | 1013.4 |
| 20260501180850 | 73 | 85 | 1.0 | 3.0 | 0.00 | 0.00 | 0.00 | 62 | 1013.4 |
| 20260501175950 | 73 | 159 | 2.0 | 4.0 | 0.00 | 0.00 | 0.00 | 62 | 1013.4 |
| 20260501174149 | 72 | 117 | 1.0 | 5.0 | 0.00 | 0.00 | 0.00 | 63 | 1013.3 |
| 20260501173249 | 72 | 107 | 2.0 | 4.0 | 0.00 | 0.00 | 0.00 | 63 | 1013.3 |
| 20260501171449 | 72 | 219 | 1.0 | 4.0 | 0.00 | 0.00 | 0.00 | 63 | 1013.3 |
| 20260501170549 | 70 | 117 | 2.0 | 4.0 | 0.00 | 0.00 | 0.00 | 65 | 1013.4 |
| 20260501165649 | 69 | 100 | 1.0 | 4.0 | 0.00 | 0.00 | 0.00 | 66 | 1013.4 |
| 20260501164749 | 69 | 123 | 1.0 | 5.0 | 0.00 | 0.00 | 0.00 | 67 | 1013.4 |
| 20260501163849 | 68 | 133 | 1.0 | 4.0 | 0.00 | 0.00 | 0.00 | 69 | 1013.4 |
| 20260501162050 | 66 | 124 | 2.0 | 5.0 | 0.00 | 0.00 | 0.00 | 70 | 1013.4 |
| 20260501161150 | 65 | 104 | 1.0 | 5.0 | 0.00 | 0.00 | 0.00 | 71 | 1013.5 |
| 20260501160250 | 65 | 115 | 2.0 | 4.0 | 0.00 | 0.00 | 0.00 | 71 | 1013.5 |
| 20260501155349 | 64 | 109 | 2.0 | 5.0 | 0.00 | 0.00 | 0.00 | 73 | 1013.4 |
| 20260501154449 | 64 | 113 | 2.0 | 5.0 | 0.00 | 0.00 | 0.00 | 74 | 1013.3 |
| 20260501153549 | 63 | 115 | 1.0 | 5.0 | 0.00 | 0.00 | 0.00 | 75 | 1013.3 |
| 20260501152650 | 63 | 102 | 1.0 | 3.0 | 0.00 | 0.00 | 0.00 | 76 | 1013.2 |
| 20260501151749 | 62 | 107 | 1.0 | 4.0 | 0.00 | 0.00 | 0.00 | 75 | 1013.3 |
| 20260501150850 | 61 | 128 | 1.0 | 3.0 | 0.00 | 0.00 | 0.00 | 77 | 1013.2 |
| 20260501145949 | 61 | 126 | 1.0 | 3.0 | 0.00 | 0.00 | 0.00 | 78 | 1013.1 |
| 20260501144149 | 59 | 98 | 0.0 | 3.0 | 0.00 | 0.00 | 0.00 | 81 | 1012.9 |
| 20260501143249 | 58 | 107 | 1.0 | 3.0 | 0.00 | 0.00 | 0.00 | 82 | 1012.7 |
| 20260501142350 | 57 | 98 | 1.0 | 3.0 | 0.00 | 0.00 | 0.00 | 85 | 1012.5 |